Погода в Турдаково

Россия / Республика Мордовия     54°32′01″N   46°27′24″E
темп.,
°C
ветер,
м/с
пор.,
м/с
влажн.,
%
обл.,
%
осадки,
мм/ч
давл.,
гПа
погр.,
м
19 апреля, пн
пн1900:00+6всв6127197 0.0 1022517
03:00+4всв51163100 0.0 1023410
06:00+3всв61268100 0.0 1023498
09:00+5всв81057100 0.0 1024718
12:00+7всв91048100 0.0 10241126
15:00+8в9104823 0.0 10241437
18:00+7в8105899 0.0 10241178
21:00+5в7126689 0.0 1025823
20 апреля, вт
вт2000:00+5в8146460 0.0 1025998
03:00+3в6137014 0.0 1026677
06:00+2в7146761 0.0 1026762
09:00+5вюв9135090 0.0 1027935
12:00+9вюв912417 0.0 10261360
15:00+10вюв91140100 0.0 10241418
18:00+8вюв81444100 0.0 10231199
21:00+7вюв91644100 0.0 10221050
21 апреля, ср
ср2100:00+6юв101847100 0.0 1020924
03:00+4юв112164100 0.8 1017833
06:00+3юв112179100 1.7 1016843
09:00+4юв101985100 3.1 1016889
12:00+4ююв101887100 0.1 1016820
15:00+5ююв91687100 0.1 1016784
18:00+4ююв81592100 0.0 1018681
21:00+4ююв61293100 0.1 1019452
22 апреля, чт
чт2200:00+4ююв51195100 0.1 1020401
03:00+4ююв3796100 0.1 1021224
06:00+5ююв4996100 0.0 1021372
09:00+5ююв4793100 0.4 1022318
12:00+11ю457266 0.0 1022828
15:00+12ю456698 0.1 10221149
18:00+10ююв367898 0.0 1023180
21:00+9ююв4886100 0.0 1024243
23 апреля, пт
пт2300:00+8ю269088 0.0 1024198
03:00+7ююв3792100 0.1 1024198
06:00+7ююв3786100 0.0 1024259
09:00+11ююв457077 0.1 1024531
12:00+14юв345799 0.5 10221302
15:00+13юв556259 2.1 1021919
18:00+12юв4667100 0.1 1021359
21:00+8вюв368399 0.1 1020173